Showing default

NIGERIASAT 1, 27941

Orbit data source: Space-Track

NIGERIASAT 1, 27941 is a payload satellite owned by NASRDA (NG) in SSO that was launched on Sat, 27 Sep 2003 UTC via a KOSMOS 11K65M launch vehicle from the Plesetsk Missile And Space Complex (PKMTR). Payload-class satellites include a variety of spacecraft equipped with specific instruments for various scientific and technological missions. These include communications satellites like Starlink; space stations such as the ISS; scientific satellites like the Hubble; Earth observation satellites from companies like Planet Labs, Umbra, and HawkEye 360; GPS; miniature CubeSats for education and research; and military/defense satellites.

Loading next visibility...
Identifier
27941, 2003-042C
Orbit
SSO
Country
Flag of NGNG / NIG
Related business
Manufacturer
SSTL
Mission
Non-operational Civil Imaging
Bus & Motor
SSTL-100, Unknown motor
Mass
80 kg wet, 80 kg dry
Launch date (UTC)
2003-09-27 (23 years ago)
Launch vehicle
KOSMOS 11K65M
Launch site
Plesetsk Missile And Space Complex (PKMTR)
Object type
Payload
Rocket body
Debris
Shape & HBR
Box + 1 Arm, 3.3 m
Radar Cross Section
0.540 m², Medium (>0.1 m² and < 1m²)

Expand to show TLE details & history
Last TLE update: 8 hours ago

TLE from 8 hours ago
0 NIGERIASAT 1
1 27941U 03042C   26123.49686153  .00001452  00000-0  15325-3 0  9999
2 27941  98.0053 314.6950 0043665  77.2450 283.3642 14.90210262217170
Epoch: 2026-05-03T11:55Z
TLE epoch observation values (Epoch: 2026-05-03T11:55:28.836Z)
Latitude
-0.00002°
Longitude
-85.57472°
Altitude
593.396 km
Speed
7.567 km/s
True Right ascension
20h 58m 46s
True Declination
0° 00' 00"
Sunlit
Object was in daylight at epoch
Visualization orbit readout
Latitude
Unknown
Longitude
Unknown
Altitude
Unknown
Speed
Unknown
Apparent Right ascension
Unknown
Apparent Declination
Unknown
Sunlit
N/A
Visualization observer readout
Local Sidereal Time
04:01:04
Azimuth
Unknown
Elevation
Unknown
Doppler factor
Unknown
Orbital elements
Apogee altitude
624.757 km
Perigee altitude
563.866 km
Semi-major axis
6,972.448 km
Eccentricity
0.00437
Inclination
98.0053°
RAAN
314.695°
Arg. of periapsis
77.245°
True anomaly
282.87678°
Mean anomaly
283.3642°
Eccentric anomaly
283.12055°
Mean motion
3.72791 °/min
Orbital period
96.57 mins
BSTAR
0.00015325
Loading maneuver chart data...
Computing Atmospheric mass density...
Loading historical data...
Loading historical data...
Loading historical data...
Loading historical data...
Loading historical data...
Loading historical data...
Loading historical data...
Other satellites on launch #42 in the year 2003 (2003-09-27 UTC)

Documentation

Showing up to 5 results
|